Regional Weather Roundup
Issued by NWS

Home | Current Version | Previous Version | Text Only | Print | Product List | Glossary On
Versions: 1 2 3 4 5 6 7 8 9 10 11 12 13 14 15 16 17 18 19 20 21 22 23 24 25 26 27 28 29 30 31 32 33 34 35 36 37 38 39 40 41 42 43 44 45 46 47 48 49 50
000
ASUS43 KBIS 171710
RWRND

NORTH DAKOTA REGIONAL WEATHER ROUNDUP
NATIONAL WEATHER SERVICE BISMARCK ND
1100 AM CST WED DEC 17 2014

NOTE: "FAIR" INDICATES FEW OR NO CLOUDS BELOW 12,000 FEET WITH NO
SIGNIFICANT WEATHER AND/OR OBSTRUCTIONS TO VISIBILITY.


NDZ001>003-009>011-017-171800-
NORTHWEST NORTH DAKOTA

CITY           SKY/WX    TMP DP  RH WIND       PRES   REMARKS
WILLISTON      LGT SNOW  18  12  77 S12       30.18S WCI   5
MINOT          LGT SNOW  13   9  84 SE8       30.26S FOG     WCI   2
MINOT AFB      LGT SNOW  12  12 100 SE12      30.26S FOG     WCI  -2
$$

NDZ018>021-031>035-040>046-171800-
SOUTHWEST NORTH DAKOTA

CITY           SKY/WX    TMP DP  RH WIND       PRES   REMARKS
BISMARCK       CLOUDY    14   9  80 S7        30.30R WCI   4
DICKINSON      LGT SNOW  17  12  80 S14       30.13S WCI   3
GARRISON         N/A     15  10  80 S14       30.24S WCI   0
HETTINGER ARPT LGT SNOW  15  12  88 SE15      30.14S FOG     WCI   0
$$

NDZ004>008-012>016-024-026-027-054-171800-
NORTHEAST NORTH DAKOTA

CITY           SKY/WX    TMP DP  RH WIND       PRES   REMARKS
GRAND FORKS    PTSUNNY    9   5  84 NW5       30.40R WCI   1
GRND FRKS AFB  SUNNY      9   8  95 N3        30.39F
DEVILS LAKE    SUNNY      9  -2  61 SW3       30.31F
$$

NDZ022-023-025-028>030-036>039-047>053-171800-
SOUTHEAST NORTH DAKOTA

CITY           SKY/WX    TMP DP  RH WIND       PRES   REMARKS
FARGO          SUNNY     11   6  81 NW7       30.39S WCI   0
JAMESTOWN      MOSUNNY    9   6  88 CALM      30.32S
$$



USA.gov is the U.S. government's official web portal to all federal, state and local government web resources and services.